| time (UTC) | temp F | wind direction | speed MPH | gust MPH | rain 1hr in | rain 24hr in | rain mn in | humidity % | barometer mb |
| 20260506080418 | 76 | 165 | 0.0 | 0.0 | 0.00 | 0.00 | 0.00 | 90 | 1009.0 |
| 20260506073402 | 76 | 227 | 3.0 | 5.0 | 0.00 | 0.00 | 0.00 | 90 | 1009.2 |
| 20260506072859 | 76 | 165 | 0.0 | 0.0 | 0.00 | 0.00 | 0.00 | 90 | 1009.4 |
| 20260506072357 | 76 | 148 | 1.0 | 1.0 | 0.00 | 0.00 | 0.00 | 90 | 1009.3 |
| 20260506071854 | 76 | 168 | 0.0 | 0.0 | 0.00 | 0.00 | 0.00 | 91 | 1009.3 |
| 20260506071352 | 76 | 142 | 0.0 | 0.0 | 0.00 | 0.00 | 0.00 | 91 | 1009.2 |
| 20260506070849 | 76 | 180 | 1.0 | 1.0 | 0.00 | 0.00 | 0.00 | 91 | 1009.4 |
| 20260506070346 | 76 | 167 | 0.0 | 1.0 | 0.00 | 0.00 | 0.00 | 91 | 1009.2 |
| 20260506062323 | 76 | 167 | 0.0 | 0.0 | 0.00 | 0.00 | 0.00 | 92 | 1009.0 |
| 20260506061819 | 76 | 158 | 0.0 | 1.0 | 0.00 | 0.00 | 0.00 | 92 | 1009.0 |
| 20260506061316 | 76 | 176 | 0.0 | 1.0 | 0.00 | 0.00 | 0.00 | 92 | 1009.0 |
| 20260506060814 | 76 | 170 | 0.0 | 1.0 | 0.00 | 0.00 | 0.00 | 92 | 1008.9 |
| 20260506060312 | 76 | 163 | 1.0 | 2.0 | 0.00 | 0.00 | 0.00 | 92 | 1008.8 |
| 20260506051243 | 76 | 171 | 0.0 | 1.0 | 0.00 | 0.00 | 0.00 | 90 | 1008.8 |
| 20260506050741 | 76 | 165 | 1.0 | 1.0 | 0.00 | 0.00 | 0.00 | 90 | 1008.8 |
| 20260506050238 | 76 | 157 | 3.0 | 3.0 | 0.00 | 0.00 | 0.00 | 89 | 1008.8 |
| 20260506044729 | 76 | 168 | 0.0 | 0.0 | 0.00 | 0.00 | 0.00 | 89 | 1009.0 |
| 20260506044227 | 76 | 187 | 0.0 | 1.0 | 0.00 | 0.00 | 0.00 | 89 | 1009.0 |
| 20260506043724 | 76 | 167 | 0.0 | 0.0 | 0.00 | 0.00 | 0.00 | 89 | 1008.8 |
| 20260506043221 | 76 | 161 | 0.0 | 0.0 | 0.00 | 0.00 | 0.00 | 88 | 1008.9 |
| 20260506042720 | 77 | 172 | 0.0 | 1.0 | 0.00 | 0.00 | 0.00 | 88 | 1008.8 |
| 20260506042218 | 77 | 170 | 0.0 | 1.0 | 0.00 | 0.00 | 0.00 | 88 | 1008.9 |
| 20260506041716 | 77 | 152 | 0.0 | 0.0 | 0.00 | 0.00 | 0.00 | 87 | 1008.7 |
| 20260506041213 | 77 | 139 | 1.0 | 2.0 | 0.00 | 0.00 | 0.00 | 87 | 1008.8 |
| 20260506040710 | 77 | 163 | 1.0 | 1.0 | 0.00 | 0.00 | 0.00 | 87 | 1008.8 |
| 20260506040207 | 77 | 170 | 0.0 | 0.0 | 0.00 | 0.00 | 0.00 | 87 | 1008.9 |
| 20260506035704 | 77 | 174 | 0.0 | 0.0 | 0.00 | 0.00 | 0.00 | 87 | 1008.8 |
| 20260506035201 | 77 | 168 | 0.0 | 0.0 | 0.00 | 0.00 | 0.00 | 87 | 1008.6 |
| 20260506034657 | 77 | 178 | 0.0 | 0.0 | 0.00 | 0.00 | 0.00 | 86 | 1008.9 |
| 20260506034155 | 77 | 162 | 0.0 | 0.0 | 0.00 | 0.00 | 0.00 | 86 | 1008.7 |
| 20260506033652 | 77 | 175 | 0.0 | 0.0 | 0.00 | 0.00 | 0.00 | 86 | 1008.6 |
| 20260506033149 | 77 | 189 | 0.0 | 1.0 | 0.00 | 0.00 | 0.00 | 85 | 1008.5 |
| 20260506032646 | 77 | 195 | 1.0 | 1.0 | 0.00 | 0.00 | 0.00 | 85 | 1008.7 |
| 20260506032143 | 77 | 172 | 0.0 | 1.0 | 0.00 | 0.00 | 0.00 | 85 | 1008.4 |
| 20260506031640 | 77 | 159 | 0.0 | 0.0 | 0.00 | 0.00 | 0.00 | 85 | 1008.3 |
| 20260506031136 | 77 | 164 | 0.0 | 0.0 | 0.00 | 0.00 | 0.00 | 85 | 1008.2 |
| 20260506030636 | 78 | 173 | 0.0 | 0.0 | 0.00 | 0.00 | 0.00 | 85 | 1008.1 |
| 20260506030132 | 78 | 174 | 0.0 | 0.0 | 0.00 | 0.00 | 0.00 | 84 | 1008.1 |
| 20260506025629 | 78 | 176 | 0.0 | 1.0 | 0.00 | 0.00 | 0.00 | 84 | 1008.1 |
| 20260506025125 | 78 | 170 | 0.0 | 1.0 | 0.00 | 0.00 | 0.00 | 84 | 1007.9 |
| 20260506024623 | 78 | 198 | 0.0 | 1.0 | 0.00 | 0.00 | 0.00 | 84 | 1007.8 |
| 20260506024118 | 78 | 187 | 0.0 | 1.0 | 0.00 | 0.00 | 0.00 | 84 | 1007.6 |
| 20260506023615 | 78 | 182 | 1.0 | 2.0 | 0.00 | 0.00 | 0.00 | 83 | 1007.6 |
| 20260506023112 | 78 | 160 | 0.0 | 0.0 | 0.00 | 0.00 | 0.00 | 83 | 1007.7 |
| 20260506022610 | 78 | 187 | 0.0 | 1.0 | 0.00 | 0.00 | 0.00 | 83 | 1007.7 |
| 20260506022107 | 78 | 162 | 0.0 | 0.0 | 0.00 | 0.00 | 0.00 | 83 | 1007.5 |
| 20260506021605 | 78 | 162 | 0.0 | 0.0 | 0.00 | 0.00 | 0.00 | 82 | 1007.3 |
| 20260506021101 | 79 | 154 | 0.0 | 0.0 | 0.00 | 0.00 | 0.00 | 81 | 1007.3 |
| 20260506020559 | 79 | 159 | 0.0 | 0.0 | 0.00 | 0.00 | 0.00 | 81 | 1007.3 |
| 20260506020056 | 79 | 164 | 0.0 | 0.0 | 0.00 | 0.00 | 0.00 | 81 | 1007.2 |
| 20260506015554 | 79 | 169 | 0.0 | 0.0 | 0.00 | 0.00 | 0.00 | 80 | 1007.1 |
| 20260506015050 | 80 | 165 | 0.0 | 0.0 | 0.00 | 0.00 | 0.00 | 80 | 1007.1 |
| 20260506014548 | 80 | 174 | 0.0 | 0.0 | 0.00 | 0.00 | 0.00 | 79 | 1007.1 |
| 20260506014043 | 80 | 179 | 0.0 | 0.0 | 0.00 | 0.00 | 0.00 | 79 | 1007.1 |
| 20260506013542 | 80 | 131 | 0.0 | 1.0 | 0.00 | 0.00 | 0.00 | 79 | 1006.8 |
| 20260506013038 | 80 | 164 | 0.0 | 1.0 | 0.00 | 0.00 | 0.00 | 78 | 1006.6 |
| 20260506012534 | 80 | 170 | 0.0 | 1.0 | 0.00 | 0.00 | 0.00 | 78 | 1006.7 |
| 20260506012031 | 81 | 168 | 0.0 | 0.0 | 0.00 | 0.00 | 0.00 | 78 | 1006.7 |
| 20260506011529 | 81 | 140 | 0.0 | 0.0 | 0.00 | 0.00 | 0.00 | 78 | 1006.5 |
| 20260506011025 | 81 | 169 | 0.0 | 0.0 | 0.00 | 0.00 | 0.00 | 77 | 1006.6 |
| 20260506010525 | 81 | 174 | 1.0 | 1.0 | 0.00 | 0.00 | 0.00 | 77 | 1006.4 |
| 20260506010021 | 82 | 175 | 0.0 | 0.0 | 0.00 | 0.00 | 0.00 | 77 | 1006.3 |
| 20260506005518 | 82 | 169 | 0.0 | 0.0 | 0.00 | 0.00 | 0.00 | 76 | 1006.4 |
| 20260506005013 | 82 | 101 | 1.0 | 2.0 | 0.00 | 0.00 | 0.00 | 76 | 1006.3 |
| 20260506004511 | 82 | 171 | 2.0 | 3.0 | 0.00 | 0.00 | 0.00 | 75 | 1006.3 |
| 20260506004008 | 83 | 162 | 0.0 | 1.0 | 0.00 | 0.00 | 0.00 | 75 | 1006.4 |
| 20260506003504 | 83 | 194 | 1.0 | 1.0 | 0.00 | 0.00 | 0.00 | 74 | 1006.3 |
| 20260506003000 | 83 | 164 | 1.0 | 2.0 | 0.00 | 0.00 | 0.00 | 74 | 1006.2 |
| 20260506002456 | 83 | 172 | 0.0 | 0.0 | 0.00 | 0.00 | 0.00 | 75 | 1006.4 |
| 20260506001951 | 84 | 177 | 1.0 | 1.0 | 0.00 | 0.00 | 0.00 | 72 | 1006.4 |
| 20260506001449 | 84 | 157 | 2.0 | 2.0 | 0.00 | 0.00 | 0.00 | 71 | 1006.4 |
| 20260506000946 | 85 | 165 | 1.0 | 1.0 | 0.00 | 0.00 | 0.00 | 71 | 1006.3 |
| 20260506000445 | 86 | 165 | 0.0 | 0.0 | 0.00 | 0.00 | 0.00 | 70 | 1006.3 |
| 20260505235940 | 86 | 175 | 1.0 | 1.0 | 0.00 | 0.00 | 0.00 | 66 | 1006.3 |
| 20260505235439 | 86 | 174 | 1.0 | 1.0 | 0.00 | 0.00 | 0.00 | 67 | 1006.2 |
| 20260505234935 | 86 | 201 | 0.0 | 1.0 | 0.00 | 0.00 | 0.00 | 67 | 1006.5 |
| 20260505234433 | 86 | 178 | 0.0 | 0.0 | 0.00 | 0.00 | 0.00 | 67 | 1006.3 |
| 20260505233929 | 86 | 206 | 1.0 | 2.0 | 0.00 | 0.00 | 0.00 | 66 | 1006.3 |
| 20260505233427 | 86 | 186 | 0.0 | 0.0 | 0.00 | 0.00 | 0.00 | 66 | 1006.4 |
| 20260505232924 | 86 | 204 | 2.0 | 2.0 | 0.00 | 0.00 | 0.00 | 66 | 1006.1 |
| 20260505232422 | 86 | 234 | 2.0 | 2.0 | 0.00 | 0.00 | 0.00 | 65 | 1006.3 |
| 20260505231918 | 86 | 181 | 0.0 | 0.0 | 0.00 | 0.00 | 0.00 | 67 | 1006.5 |
| 20260505231416 | 86 | 177 | 0.0 | 1.0 | 0.00 | 0.00 | 0.00 | 66 | 1006.4 |
| 20260505230914 | 87 | 178 | 1.0 | 1.0 | 0.00 | 0.00 | 0.00 | 65 | 1006.4 |
| 20260505230412 | 87 | 164 | 1.0 | 1.0 | 0.00 | 0.00 | 0.00 | 65 | 1006.4 |
| 20260505225908 | 87 | 156 | 0.0 | 1.0 | 0.00 | 0.00 | 0.00 | 65 | 1006.2 |
| 20260505225405 | 87 | 174 | 0.0 | 1.0 | 0.00 | 0.00 | 0.00 | 64 | 1006.4 |
| 20260505224901 | 87 | 176 | 1.0 | 1.0 | 0.00 | 0.00 | 0.00 | 64 | 1006.3 |
| 20260505224359 | 87 | 156 | 1.0 | 1.0 | 0.00 | 0.00 | 0.00 | 63 | 1006.1 |
| 20260505223855 | 87 | 168 | 0.0 | 1.0 | 0.00 | 0.00 | 0.00 | 66 | 1006.1 |
| 20260505223352 | 87 | 216 | 1.0 | 2.0 | 0.00 | 0.00 | 0.00 | 63 | 1006.3 |
| 20260505222848 | 87 | 193 | 1.0 | 2.0 | 0.00 | 0.00 | 0.00 | 63 | 1006.3 |
| 20260505222344 | 87 | 194 | 1.0 | 1.0 | 0.00 | 0.00 | 0.00 | 62 | 1006.3 |
| 20260505221841 | 88 | 207 | 3.0 | 3.0 | 0.00 | 0.00 | 0.00 | 62 | 1006.3 |
| 20260505221338 | 87 | 202 | 1.0 | 2.0 | 0.00 | 0.00 | 0.00 | 64 | 1006.4 |
| 20260505220835 | 88 | 228 | 3.0 | 5.0 | 0.00 | 0.00 | 0.00 | 63 | 1006.4 |
| 20260505220332 | 87 | 184 | 0.0 | 1.0 | 0.00 | 0.00 | 0.00 | 63 | 1006.3 |
| 20260505215830 | 88 | 202 | 2.0 | 2.0 | 0.00 | 0.00 | 0.00 | 60 | 1006.3 |
| 20260505215328 | 89 | 206 | 1.0 | 1.0 | 0.00 | 0.00 | 0.00 | 64 | 1006.3 |
| 20260505214826 | 89 | 178 | 0.0 | 1.0 | 0.00 | 0.00 | 0.00 | 62 | 1006.2 |
| 20260505214323 | 89 | 224 | 1.0 | 2.0 | 0.00 | 0.00 | 0.00 | 61 | 1006.2 |
| 20260505213820 | 89 | 202 | 1.0 | 1.0 | 0.00 | 0.00 | 0.00 | 59 | 1006.4 |
| 20260505213318 | 90 | 187 | 2.0 | 2.0 | 0.00 | 0.00 | 0.00 | 60 | 1006.6 |
| 20260505212813 | 90 | 179 | 2.0 | 2.0 | 0.00 | 0.00 | 0.00 | 61 | 1006.6 |
| 20260505212310 | 89 | 206 | 2.0 | 2.0 | 0.00 | 0.00 | 0.00 | 61 | 1006.8 |
| 20260505211807 | 88 | 211 | 1.0 | 2.0 | 0.00 | 0.00 | 0.00 | 63 | 1006.7 |
| 20260505211305 | 89 | 66 | 1.0 | 2.0 | 0.00 | 0.00 | 0.00 | 62 | 1006.6 |
| 20260505210801 | 89 | 196 | 1.0 | 1.0 | 0.00 | 0.00 | 0.00 | 62 | 1006.5 |
| 20260505210258 | 89 | 186 | 1.0 | 1.0 | 0.00 | 0.00 | 0.00 | 63 | 1006.6 |
| 20260505205755 | 89 | 192 | 1.0 | 2.0 | 0.00 | 0.00 | 0.00 | 61 | 1006.9 |
| 20260505205253 | 89 | 250 | 3.0 | 3.0 | 0.00 | 0.00 | 0.00 | 60 | 1006.9 |
| 20260505204749 | 89 | 233 | 2.0 | 2.0 | 0.00 | 0.00 | 0.00 | 60 | 1006.9 |
| 20260505204248 | 89 | 176 | 1.0 | 2.0 | 0.00 | 0.00 | 0.00 | 61 | 1007.1 |
| 20260505203744 | 89 | 161 | 2.0 | 2.0 | 0.00 | 0.00 | 0.00 | 63 | 1007.3 |
| 20260505203241 | 88 | 158 | 1.0 | 1.0 | 0.00 | 0.00 | 0.00 | 62 | 1007.4 |
| 20260505202737 | 89 | 230 | 1.0 | 2.0 | 0.00 | 0.00 | 0.00 | 62 | 1007.1 |
| 20260505202233 | 89 | 167 | 2.0 | 2.0 | 0.00 | 0.00 | 0.00 | 64 | 1007.2 |
| 20260505201730 | 88 | 226 | 2.0 | 2.0 | 0.00 | 0.00 | 0.00 | 61 | 1007.3 |
| 20260505201228 | 88 | 251 | 2.0 | 2.0 | 0.00 | 0.00 | 0.00 | 62 | 1007.5 |
| 20260505200726 | 88 | 177 | 3.0 | 3.0 | 0.00 | 0.00 | 0.00 | 63 | 1007.4 |
| 20260505200223 | 89 | 183 | 0.0 | 0.0 | 0.00 | 0.00 | 0.00 | 62 | 1007.2 |
| 20260505195718 | 89 | 182 | 2.0 | 2.0 | 0.00 | 0.00 | 0.00 | 64 | 1007.6 |
| 20260505195216 | 88 | 236 | 2.0 | 2.0 | 0.00 | 0.00 | 0.00 | 62 | 1007.6 |
| 20260505194713 | 88 | 183 | 2.0 | 2.0 | 0.00 | 0.00 | 0.00 | 65 | 1007.5 |
| 20260505194209 | 87 | 189 | 0.0 | 1.0 | 0.00 | 0.00 | 0.00 | 64 | 1007.7 |
| 20260505193705 | 88 | 196 | 2.0 | 3.0 | 0.00 | 0.00 | 0.00 | 63 | 1007.5 |
| 20260505193202 | 88 | 166 | 3.0 | 3.0 | 0.00 | 0.00 | 0.00 | 62 | 1007.6 |
| 20260505192701 | 88 | 183 | 3.0 | 5.0 | 0.00 | 0.00 | 0.00 | 62 | 1007.7 |
| 20260505192158 | 87 | 182 | 1.0 | 2.0 | 0.00 | 0.00 | 0.00 | 64 | 1007.8 |
| 20260505191656 | 87 | 238 | 2.0 | 2.0 | 0.00 | 0.00 | 0.00 | 63 | 1008.0 |
| 20260505191154 | 88 | 231 | 2.0 | 3.0 | 0.00 | 0.00 | 0.00 | 64 | 1008.0 |
| 20260505190650 | 87 | 169 | 0.0 | 1.0 | 0.00 | 0.00 | 0.00 | 66 | 1008.0 |
| 20260505190149 | 87 | 206 | 1.0 | 2.0 | 0.00 | 0.00 | 0.00 | 65 | 1008.1 |
| 20260505185646 | 87 | 207 | 1.0 | 1.0 | 0.00 | 0.00 | 0.00 | 65 | 1008.3 |
| 20260505185142 | 87 | 206 | 1.0 | 1.0 | 0.00 | 0.00 | 0.00 | 65 | 1008.3 |
| 20260505184639 | 87 | 164 | 2.0 | 2.0 | 0.00 | 0.00 | 0.00 | 65 | 1008.2 |
| 20260505184136 | 86 | 154 | 1.0 | 2.0 | 0.00 | 0.00 | 0.00 | 66 | 1008.5 |
| 20260505183633 | 86 | 254 | 2.0 | 2.0 | 0.00 | 0.00 | 0.00 | 66 | 1008.5 |
| 20260505183131 | 86 | 173 | 1.0 | 2.0 | 0.00 | 0.00 | 0.00 | 70 | 1008.5 |
| 20260505182627 | 85 | 188 | 2.0 | 2.0 | 0.00 | 0.00 | 0.00 | 69 | 1008.6 |
| 20260505182124 | 85 | 248 | 3.0 | 3.0 | 0.00 | 0.00 | 0.00 | 68 | 1008.8 |
| 20260505181620 | 84 | 192 | 3.0 | 6.0 | 0.00 | 0.00 | 0.00 | 69 | 1008.8 |
| 20260505181118 | 83 | 225 | 2.0 | 3.0 | 0.00 | 0.00 | 0.00 | 70 | 1009.0 |
| 20260505180614 | 84 | 210 | 1.0 | 2.0 | 0.00 | 0.00 | 0.00 | 70 | 1009.2 |
| 20260505180111 | 83 | 195 | 2.0 | 3.0 | 0.00 | 0.00 | 0.00 | 70 | 1009.0 |
| 20260505175607 | 83 | 120 | 2.0 | 3.0 | 0.00 | 0.00 | 0.00 | 71 | 1009.3 |
| 20260505175104 | 82 | 211 | 1.0 | 2.0 | 0.00 | 0.00 | 0.00 | 72 | 1009.5 |
| 20260505174600 | 84 | 264 | 4.0 | 5.0 | 0.00 | 0.00 | 0.00 | 69 | 1009.3 |
| 20260505174056 | 83 | 220 | 1.0 | 1.0 | 0.00 | 0.00 | 0.00 | 73 | 1009.3 |
| 20260505173553 | 82 | 195 | 2.0 | 2.0 | 0.00 | 0.00 | 0.00 | 72 | 1009.3 |
| 20260505173050 | 82 | 165 | 3.0 | 6.0 | 0.00 | 0.00 | 0.00 | 72 | 1009.5 |
| 20260505172548 | 81 | 213 | 2.0 | 2.0 | 0.00 | 0.00 | 0.00 | 74 | 1009.6 |
| 20260505172044 | 82 | 294 | 3.0 | 5.0 | 0.00 | 0.00 | 0.00 | 74 | 1009.6 |
| 20260505171539 | 82 | 172 | 3.0 | 5.0 | 0.00 | 0.00 | 0.00 | 72 | 1009.6 |
| 20260505171036 | 82 | 182 | 1.0 | 1.0 | 0.00 | 0.00 | 0.00 | 74 | 1009.5 |
| 20260505170533 | 80 | 196 | 1.0 | 1.0 | 0.00 | 0.00 | 0.00 | 77 | 1009.6 |
| 20260505170029 | 81 | 188 | 5.0 | 7.0 | 0.00 | 0.00 | 0.00 | 74 | 1009.7 |
| 20260505165525 | 81 | 230 | 2.0 | 2.0 | 0.00 | 0.00 | 0.00 | 76 | 1009.7 |
| 20260505165020 | 81 | 244 | 2.0 | 2.0 | 0.00 | 0.00 | 0.00 | 75 | 1009.8 |
| 20260505164516 | 80 | 246 | 3.0 | 3.0 | 0.00 | 0.00 | 0.00 | 75 | 1009.7 |
| 20260505164015 | 81 | 194 | 0.0 | 1.0 | 0.00 | 0.00 | 0.00 | 76 | 1009.7 |
| 20260505163513 | 79 | 181 | 3.0 | 5.0 | 0.00 | 0.00 | 0.00 | 77 | 1009.7 |
| 20260505163009 | 78 | 195 | 1.0 | 1.0 | 0.00 | 0.00 | 0.00 | 80 | 1009.9 |
| 20260505162503 | 79 | 178 | 1.0 | 1.0 | 0.00 | 0.00 | 0.00 | 76 | 1009.7 |
| 20260505161959 | 78 | 171 | 1.0 | 1.0 | 0.00 | 0.00 | 0.00 | 79 | 1009.8 |
| 20260505161456 | 78 | 165 | 1.0 | 1.0 | 0.00 | 0.00 | 0.00 | 79 | 1009.6 |
| 20260505160953 | 78 | 178 | 1.0 | 1.0 | 0.00 | 0.00 | 0.00 | 79 | 1009.7 |
| 20260505160452 | 77 | 201 | 2.0 | 3.0 | 0.00 | 0.00 | 0.00 | 80 | 1009.9 |
| 20260505152929 | 76 | 169 | 1.0 | 2.0 | 0.00 | 0.00 | 0.00 | 83 | 1009.7 |
| 20260505152426 | 76 | 242 | 3.0 | 3.0 | 0.00 | 0.00 | 0.00 | 82 | 1009.6 |
| 20260505151925 | 76 | 195 | 2.0 | 3.0 | 0.00 | 0.00 | 0.00 | 82 | 1009.5 |
| 20260505151421 | 76 | 167 | 3.0 | 3.0 | 0.00 | 0.00 | 0.00 | 81 | 1009.8 |
| 20260505150919 | 76 | 183 | 1.0 | 1.0 | 0.00 | 0.00 | 0.00 | 82 | 1009.6 |
| 20260505150416 | 76 | 181 | 2.0 | 3.0 | 0.00 | 0.00 | 0.00 | 82 | 1009.5 |
| 20260505140346 | 74 | 187 | 1.0 | 1.0 | 0.00 | 0.00 | 0.00 | 87 | 1009.4 |
| 20260505130309 | 72 | 229 | 1.0 | 1.0 | 0.00 | 0.00 | 0.00 | 89 | 1008.7 |
| 20260505124800 | 72 | 183 | 0.0 | 1.0 | 0.00 | 0.00 | 0.00 | 89 | 1008.6 |
| 20260505124257 | 72 | 194 | 1.0 | 1.0 | 0.00 | 0.00 | 0.00 | 89 | 1008.6 |
| 20260505123752 | 72 | 185 | 1.0 | 1.0 | 0.00 | 0.00 | 0.00 | 89 | 1008.4 |
| 20260505123249 | 72 | 188 | 1.0 | 1.0 | 0.00 | 0.00 | 0.00 | 89 | 1008.4 |
| 20260505122746 | 72 | 183 | 0.0 | 1.0 | 0.00 | 0.00 | 0.00 | 89 | 1008.4 |
| 20260505122243 | 72 | 171 | 0.0 | 0.0 | 0.00 | 0.00 | 0.00 | 89 | 1008.4 |
| 20260505121739 | 72 | 209 | 1.0 | 1.0 | 0.00 | 0.00 | 0.00 | 89 | 1008.2 |
| 20260505121236 | 72 | 217 | 2.0 | 2.0 | 0.00 | 0.00 | 0.00 | 89 | 1008.1 |
| 20260505120732 | 72 | 190 | 1.0 | 1.0 | 0.00 | 0.00 | 0.00 | 89 | 1007.9 |
| 20260505120229 | 72 | 215 | 2.0 | 2.0 | 0.00 | 0.00 | 0.00 | 89 | 1007.9 |
| 20260505115727 | 72 | 178 | 0.0 | 1.0 | 0.00 | 0.00 | 0.00 | 89 | 1007.9 |
| 20260505115225 | 72 | 185 | 0.0 | 1.0 | 0.00 | 0.00 | 0.00 | 89 | 1007.9 |
| 20260505114722 | 72 | 185 | 1.0 | 1.0 | 0.00 | 0.00 | 0.00 | 88 | 1007.8 |
| 20260505114218 | 72 | 191 | 2.0 | 2.0 | 0.00 | 0.00 | 0.00 | 89 | 1007.9 |
| 20260505113715 | 72 | 185 | 0.0 | 0.0 | 0.00 | 0.00 | 0.00 | 89 | 1007.6 |
| 20260505113212 | 72 | 198 | 2.0 | 2.0 | 0.00 | 0.00 | 0.00 | 89 | 1007.4 |
| 20260505112708 | 72 | 212 | 1.0 | 1.0 | 0.00 | 0.00 | 0.00 | 89 | 1007.6 |
| 20260505112206 | 72 | 187 | 0.0 | 1.0 | 0.00 | 0.00 | 0.00 | 89 | 1007.6 |
| 20260505111705 | 72 | 190 | 1.0 | 1.0 | 0.00 | 0.00 | 0.00 | 89 | 1007.6 |
| 20260505111201 | 72 | 178 | 0.0 | 0.0 | 0.00 | 0.00 | 0.00 | 88 | 1007.6 |
| 20260505110657 | 72 | 189 | 1.0 | 1.0 | 0.00 | 0.00 | 0.00 | 89 | 1007.8 |
| 20260505110155 | 72 | 195 | 1.0 | 1.0 | 0.00 | 0.00 | 0.00 | 88 | 1007.8 |
| 20260505102131 | 72 | 190 | 1.0 | 1.0 | 0.00 | 0.00 | 0.00 | 88 | 1008.1 |
| 20260505101629 | 72 | 185 | 1.0 | 1.0 | 0.00 | 0.00 | 0.00 | 88 | 1008.2 |
| 20260505101125 | 72 | 160 | 2.0 | 3.0 | 0.00 | 0.00 | 0.00 | 88 | 1008.0 |
| 20260505100621 | 72 | 192 | 1.0 | 1.0 | 0.00 | 0.00 | 0.00 | 88 | 1008.0 |
| 20260505100118 | 72 | 253 | 1.0 | 2.0 | 0.00 | 0.00 | 0.00 | 88 | 1008.0 |
| 20260505095614 | 72 | 170 | 1.0 | 1.0 | 0.00 | 0.00 | 0.00 | 88 | 1007.9 |
| 20260505095111 | 72 | 216 | 1.0 | 1.0 | 0.00 | 0.00 | 0.00 | 88 | 1007.9 |
| 20260505094608 | 72 | 194 | 1.0 | 1.0 | 0.00 | 0.00 | 0.00 | 88 | 1007.8 |
| 20260505094104 | 72 | 183 | 0.0 | 0.0 | 0.00 | 0.00 | 0.00 | 88 | 1008.1 |
| 20260505093600 | 72 | 178 | 0.0 | 0.0 | 0.00 | 0.00 | 0.00 | 88 | 1008.3 |
| 20260505093058 | 72 | 188 | 1.0 | 1.0 | 0.00 | 0.00 | 0.00 | 88 | 1008.2 |
| 20260505092555 | 72 | 189 | 1.0 | 1.0 | 0.00 | 0.00 | 0.00 | 88 | 1008.5 |
| 20260505092054 | 72 | 191 | 1.0 | 1.0 | 0.00 | 0.00 | 0.00 | 88 | 1008.4 |
| 20260505091550 | 71 | 249 | 1.0 | 2.0 | 0.00 | 0.00 | 0.00 | 88 | 1008.3 |
| 20260505091049 | 71 | 184 | 0.0 | 0.0 | 0.00 | 0.00 | 0.00 | 88 | 1008.2 |
| 20260505090546 | 71 | 188 | 1.0 | 1.0 | 0.00 | 0.00 | 0.00 | 88 | 1007.9 |
| 20260505090044 | 71 | 185 | 0.0 | 1.0 | 0.00 | 0.00 | 0.00 | 89 | 1008.1 |
| 20260505085541 | 71 | 180 | 1.0 | 1.0 | 0.00 | 0.00 | 0.00 | 89 | 1008.2 |
| 20260505085039 | 71 | 174 | 1.0 | 1.0 | 0.00 | 0.00 | 0.00 | 89 | 1008.3 |
| 20260505084537 | 71 | 184 | 2.0 | 2.0 | 0.00 | 0.00 | 0.00 | 89 | 1008.3 |
| 20260505084035 | 71 | 185 | 0.0 | 0.0 | 0.00 | 0.00 | 0.00 | 90 | 1008.6 |
| 20260505083532 | 71 | 185 | 0.0 | 1.0 | 0.00 | 0.00 | 0.00 | 90 | 1008.6 |
| 20260505083028 | 70 | 176 | 0.0 | 0.0 | 0.00 | 0.00 | 0.00 | 91 | 1008.6 |
| 20260505082524 | 70 | 177 | 0.0 | 1.0 | 0.00 | 0.00 | 0.00 | 91 | 1008.7 |
| 20260505082021 | 70 | 165 | 0.0 | 0.0 | 0.00 | 0.00 | 0.00 | 91 | 1008.7 |
| 20260505081518 | 70 | 148 | 0.0 | 1.0 | 0.00 | 0.00 | 0.00 | 91 | 1008.8 |
| 20260505081015 | 70 | 186 | 1.0 | 1.0 | 0.00 | 0.00 | 0.00 | 91 | 1008.4 |